This is the latest recevied weather packets stored in our database for station/object W4NDF-13. If no packets are shown the sender has not sent any weather packets the latest 10 day(s).
| Time | Temp. | Humidity | Pressure | Rain* | Wind** | Luminosity | Snow |
|---|---|---|---|---|---|---|---|
| 1777783508 | 20° C | 48% | 1019.6 hPa | 0 mm | - | 0 W/m² | - |
| 1777783206 | 20° C | 50% | 1019.9 hPa | 0 mm | - | 0 W/m² | - |
| 1777782902 | 20° C | 49% | 1020.1 hPa | 0 mm | - | 0 W/m² | - |
| 1777782599 | 20° C | 50% | 1020.2 hPa | 0 mm | - | 0 W/m² | - |
| 1777782295 | 20° C | 50% | 1019.9 hPa | 0 mm | - | 0 W/m² | - |
| 1777781992 | 20° C | 48% | 1019.5 hPa | 0 mm | - | 0 W/m² | - |
| 1777781689 | 20° C | 48% | 1019.7 hPa | 0 mm | - | 0 W/m² | - |
| 1777781387 | 20° C | 49% | 1019.7 hPa | 0 mm | - | 0 W/m² | - |
| 1777781084 | 20° C | 49% | 1019.5 hPa | 0 mm | - | 0 W/m² | - |
| 1777780781 | 20° C | 48% | 1019.4 hPa | 0 mm | - | 0 W/m² | - |
| 1777780477 | 20° C | 48% | 1019.6 hPa | 0 mm | - | 0 W/m² | - |
| 1777780176 | 20° C | 49% | 1019.3 hPa | 0 mm | - | 0 W/m² | - |
| 1777779873 | 20° C | 48% | 1019.5 hPa | 0 mm | - | 0 W/m² | - |
| 1777779569 | 20° C | 47% | 1019.5 hPa | 0 mm | - | 0 W/m² | - |
| 1777779267 | 20° C | 47% | 1019.5 hPa | 0 mm | - | 0 W/m² | - |
| 1777778965 | 20° C | 49% | 1019.4 hPa | 0 mm | - | 0 W/m² | - |
| 1777778663 | 20.56° C | 47% | 1019.4 hPa | 0 mm | - | 0 W/m² | - |
| 1777778360 | 20° C | 48% | 1019.3 hPa | 0 mm | - | 0 W/m² | - |
| 1777778058 | 20.56° C | 47% | 1019.1 hPa | 0 mm | - | 0 W/m² | - |
| 1777777754 | 20.56° C | 46% | 1019.1 hPa | 0 mm | - | 0 W/m² | - |
| 1777777451 | 20° C | 49% | 1019 hPa | 0 mm | - | 0 W/m² | - |
| 1777777148 | 20.56° C | 47% | 1018.9 hPa | 0 mm | - | 0 W/m² | - |
| 1777776845 | 20.56° C | 47% | 1019 hPa | 0 mm | - | 0 W/m² | - |
| 1777776542 | 20.56° C | 46% | 1019 hPa | 0 mm | - | 0 W/m² | - |
| 1777776238 | 20.56° C | 46% | 1018.8 hPa | 0 mm | - | 0 W/m² | - |
* Rain latest hour (hover to see other rain measurements)
** Current wind speed in m/s (hover to see current wind gust speed)